CFG3EV EDDM-LGKR

Flight info

Callsign CFG3EV
Flight time N/A
Altitude 35000
Route VAVOR3S/26L VAVOR M867 RADIZ DCT GIMIX DCT SABAD DCT SIRMI DCT TIKSA DCT RODON DCT LIMJA/N0375F190 N732 PITAS
Aircraft A320/M-SDE2FGHIJ1RWXY/LB1

Departure

Time N/A
Airport Munich Airport (EDDM)

Arrival

Time 2026-05-05 17:36
Airport Corfu Ioannis Kapodistrias International Airport (LGKR)
Time Latitude Longitude Altitude Speed Heading
2026-05-05 17:15 40.57439 19.52704 30680 ft 480 kts 165°
2026-05-05 17:16 40.54312 19.54203 30147 ft 476 kts 166°
2026-05-05 17:16 40.51211 19.55681 29509 ft 472 kts 166°
2026-05-05 17:16 40.48144 19.57138 28897 ft 468 kts 165°
2026-05-05 17:16 40.45088 19.58584 28321 ft 463 kts 165°
2026-05-05 17:17 40.42078 19.60004 27779 ft 459 kts 165°
2026-05-05 17:17 40.39083 19.61416 27233 ft 454 kts 165°
2026-05-05 17:17 40.36121 19.62813 26709 ft 450 kts 164°
2026-05-05 17:17 40.33184 19.64200 26189 ft 446 kts 164°
2026-05-05 17:18 40.30274 19.65573 25703 ft 442 kts 164°
2026-05-05 17:18 40.27398 19.66929 25193 ft 438 kts 163°
2026-05-05 17:18 40.24544 19.68275 24724 ft 433 kts 163°
2026-05-05 17:18 40.21723 19.69604 24269 ft 429 kts 163°
2026-05-05 17:19 40.18924 19.70909 23831 ft 425 kts 165°
2026-05-05 17:19 40.16072 19.71602 23361 ft 413 kts 182°
2026-05-05 17:19 40.13218 19.71602 22835 ft 408 kts 185°
2026-05-05 17:19 40.10389 19.71530 22327 ft 405 kts 185°
2026-05-05 17:20 40.07533 19.71450 21823 ft 402 kts 185°
2026-05-05 17:20 40.04788 19.71369 21333 ft 399 kts 185°
2026-05-05 17:20 40.01993 19.71276 20848 ft 397 kts 185°
2026-05-05 17:20 39.99236 19.71179 20381 ft 394 kts 185°
2026-05-05 17:21 39.96500 19.71078 19928 ft 391 kts 185°
2026-05-05 17:21 39.93799 19.70973 19488 ft 388 kts 185°
2026-05-05 17:21 39.91120 19.70865 19047 ft 385 kts 185°
2026-05-05 17:22 39.85800 19.70638 18164 ft 379 kts 185°
2026-05-05 17:22 39.83181 19.70513 17686 ft 376 kts 185°
2026-05-05 17:22 39.80589 19.70376 17229 ft 372 kts 185°
2026-05-05 17:22 39.78011 19.70230 16796 ft 369 kts 185°
2026-05-05 17:23 39.75452 19.70079 16372 ft 366 kts 185°
2026-05-05 17:23 39.72925 19.69921 15958 ft 362 kts 185°
2026-05-05 17:23 39.70423 19.69757 15547 ft 359 kts 185°
2026-05-05 17:23 39.67930 19.69585 15146 ft 356 kts 185°
2026-05-05 17:24 39.65468 19.69407 14741 ft 352 kts 185°
2026-05-05 17:24 39.63078 19.68996 14032 ft 343 kts 199°
2026-05-05 17:24 39.61007 19.67582 13219 ft 335 kts 221°
2026-05-05 17:24 39.59542 19.65299 12369 ft 328 kts 242°
2026-05-05 17:25 39.58489 19.62692 11495 ft 326 kts 245°
2026-05-05 17:25 39.57812 19.60920 10935 ft 324 kts 245°
2026-05-05 17:25 39.56511 19.57498 10214 ft 309 kts 245°
2026-05-05 17:25 39.55588 19.55083 9906 ft 291 kts 243°
2026-05-05 17:26 39.54330 19.53009 9514 ft 290 kts 221°
2026-05-05 17:26 39.52611 19.51706 9147 ft 289 kts 199°
2026-05-05 17:26 39.50659 19.51349 8767 ft 288 kts 176°
2026-05-05 17:26 39.48727 19.51982 8369 ft 287 kts 154°
2026-05-05 17:27 39.47123 19.53531 7987 ft 285 kts 131°
2026-05-05 17:27 39.46096 19.55657 7602 ft 282 kts 115°
2026-05-05 17:27 39.45267 19.57958 7213 ft 281 kts 115°
2026-05-05 17:27 39.44434 19.60269 6831 ft 279 kts 115°
2026-05-05 17:28 39.43617 19.62538 6437 ft 278 kts 115°
2026-05-05 17:28 39.42803 19.64791 6018 ft 276 kts 115°
2026-05-05 17:28 39.41989 19.67043 5609 ft 275 kts 115°
2026-05-05 17:28 39.41185 19.69268 5210 ft 273 kts 115°
2026-05-05 17:29 39.40384 19.71492 4784 ft 272 kts 114°
2026-05-05 17:29 39.39841 19.73818 4356 ft 271 kts 99°
2026-05-05 17:29 39.39748 19.76245 3913 ft 270 kts 89°
2026-05-05 17:29 39.39789 19.78665 3580 ft 267 kts 89°
2026-05-05 17:30 39.39826 19.81027 3328 ft 259 kts 89°
2026-05-05 17:30 39.39858 19.83327 3105 ft 251 kts 89°
2026-05-05 17:30 39.39887 19.85524 2992 ft 238 kts 89°
2026-05-05 17:30 39.39981 19.87612 2911 ft 228 kts 79°
2026-05-05 17:31 39.40386 19.89571 2916 ft 227 kts 73°
2026-05-05 17:31 39.40835 19.91530 2915 ft 227 kts 73°
2026-05-05 17:31 39.41277 19.93483 2915 ft 225 kts 73°
2026-05-05 17:31 39.41714 19.95355 2909 ft 211 kts 68°
2026-05-05 17:32 39.42588 19.96786 2915 ft 203 kts 28°
2026-05-05 17:32 39.43920 19.97169 2917 ft 197 kts 349°
2026-05-05 17:32 39.45212 19.96664 2905 ft 190 kts 340°
2026-05-05 17:32 39.46469 19.96173 2608 ft 188 kts 342°
2026-05-05 17:33 39.47721 19.95719 2341 ft 185 kts 342°
2026-05-05 17:33 39.48937 19.95280 2088 ft 177 kts 342°
2026-05-05 17:33 39.50095 19.94843 1820 ft 166 kts 341°
2026-05-05 17:33 39.51151 19.94429 1684 ft 149 kts 340°
2026-05-05 17:34 39.52118 19.94023 1631 ft 143 kts 338°
2026-05-05 17:34 39.53048 19.93601 1415 ft 142 kts 337°
2026-05-05 17:34 39.53961 19.93141 1188 ft 140 kts 335°
2026-05-05 17:34 39.54861 19.92682 979 ft 139 kts 339°
2026-05-05 17:35 39.55799 19.92354 792 ft 140 kts 344°
2026-05-05 17:35 39.56756 19.92094 573 ft 141 kts 346°
2026-05-05 17:35 39.57720 19.91847 394 ft 141 kts 346°
2026-05-05 17:35 39.58682 19.91603 184 ft 141 kts 347°
2026-05-05 17:36 39.59637 19.91357 25 ft 135 kts 347°
2026-05-05 17:36 39.60379 19.91163 19 ft 70 kts 349°
2026-05-05 17:36 39.60723 19.91073 19 ft 45 kts 348°
2026-05-05 17:36 39.60963 19.91012 19 ft 12 kts 349°
2026-05-05 17:37 39.61034 19.91044 20 ft 11 kts 45°
2026-05-05 17:37 39.61058 19.91097 19 ft 9 kts 80°
2026-05-05 17:37 39.60994 19.91140 20 ft 8 kts 167°
2026-05-05 17:37 39.60945 19.91154 19 ft 7 kts 168°
2026-05-05 17:38 39.60903 19.91165 20 ft 6 kts 168°
2026-05-05 17:38 39.60867 19.91175 18 ft 5 kts 168°
2026-05-05 17:38 39.60835 19.91183 18 ft 4 kts 168°
2026-05-05 17:38 39.60818 19.91209 18 ft 4 kts 106°
2026-05-05 17:39 39.60820 19.91240 18 ft 3 kts 77°
2026-05-05 17:39 39.60825 19.91271 18 ft 3 kts 78°
2026-05-05 17:39 39.60829 19.91297 20 ft 3 kts 79°
2026-05-05 17:39 39.60832 19.91315 18 ft 0 kts 79°